Regional Weather Roundup
Issued by NWS Cleveland, OH

Home | Current Version | Previous Version | Text Only | Print | Product List | Glossary On
Versions: 1 2 3 4 5 6 7 8 9 10 11 12 13 14 15 16 17 18 19 20 21 22 23 24 25 26 27 28 29 30 31 32 33 34 35 36 37 38 39 40 41 42 43 44 45 46 47 48 49 50
000
ASUS41 KCLE 271012
RWRCLE
OHIO REGIONAL WEATHER ROUNDUP
NATIONAL WEATHER SERVICE WILMINGTON, OH
600 AM EDT MON MAR 27 2017

NOTE: "FAIR" INDICATES FEW OR NO CLOUDS BELOW 12,000 FEET WITH NO
SIGNIFICANT WEATHER AND/OR OBSTRUCTIONS TO VISIBILITY.

OHZ001>008-015>018-024>027-034-035-043-044-271100-
   NORTHWEST OHIO

CITY           SKY/WX    TMP DP  RH WIND       PRES   REMARKS
DEFIANCE       CLOUDY    51  49  92 SW7       29.91S
FINDLAY        CLOUDY    53  49  86 W9        29.91S
TOLEDO EXPRESS CLOUDY    52  51  97 SW8       29.90R
TOLEDO EXEC    CLOUDY    53  51  93 SW9       29.91R
LIMA           CLOUDY    51  50  96 S7        29.92S
$$

OHZ009>014-019>023-028>033-038-089-271100-
   NORTHEAST OHIO

CITY           SKY/WX    TMP DP  RH WIND       PRES   REMARKS
CLE-HOPKINS    MOCLDY    55  50  83 SW7       29.93R
CLE-LAKEFRONT  CLOUDY    55  51  86 SW10      29.89R
CUY CO. ARPT   NOT AVBL
LORAIN-ELYRIA  CLOUDY    53  49  86 W13       29.92R
ASHTABULA      CLOUDY    54  53  97 S9        29.90S
AKRON-CANTON   CLOUDY    53  50  89 SW7       29.94R
WOOSTER        CLOUDY    53  50  89 W8        29.94R
MANSFIELD      CLOUDY    52  50  93 W8        29.94R
YOUNGSTOWN     CLOUDY    54  52  93 SW8       29.93R
$$

OHZ042-051>053-060>062-070>072-077>081-271100-
  SOUTHWEST OHIO

CITY           SKY/WX    TMP DP  RH WIND       PRES   REMARKS
CINC-COVINGTON FAIR      45  45 100 S3        29.97R FOG
CINC-LUNKEN    FOG       44  44 100 CALM      29.99R VSB 1/4
HAMILTON       FOG       42  42 100 CALM      29.99R VSB 1/4
DAYTON         CLOUDY    50  48  93 SW8       29.97R
WRIGHT-PAT AFB CLOUDY    49  49 100 S5        29.97R
DAYTON GENERAL CLOUDY    48  48 100 CALM      29.97R FOG
WILMINGTON     FOG       47  47 100 SW5       29.97R VSB 1/4
$$

OHZ036-037-039>041-045>050-054>059-063>069-073>076-082>088-271100-
  CENTRAL AND SOUTHEAST OHIO

CITY           SKY/WX    TMP DP  RH WIND       PRES   REMARKS
COLUMBUS       MOCLDY    51  50  96 S6        29.96R
OSU AIRPORT    FAIR      48  48 100 SW5       29.95S FOG
BOLTON FIELD   FAIR      48  48 100 SW6       29.97R FOG
RICKENBACK AFB FAIR      47  48 100 S5        29.96S FOG
NEWARK         FOG       49  47  93 S3        29.96R VSB 1/2
MARION         CLOUDY    51  49  92 SW6       29.95R
LANCASTER      FOG       47  45  93 SW3       29.98R VSB 1/4
ZANESVILLE     FAIR      53  51  93 SW3       29.97R
NEW PHILLY     MOCLDY    55  53  93 W5        29.96R
$$



USA.gov is the U.S. government's official web portal to all federal, state and local government web resources and services.